• en France
  • Liste des pays
  • À 7 jours
  • Température de l'eau
  • Carte satellitaire
  • Carte météo
  • Widgets météo
  • user-avatar
    Se connecter

    Météo par heure à Gomel

    Ce jour, 17 Janvier, Mercredi

    Heure Température Précipitation Vent Pression Humidité
    00:00 -12°C° 0 mm 6 m/s 746 mmHg 73%
    01:00 -12°C° 0 mm 6 m/s 745 mmHg 76%
    02:00 -11°C° 0 mm 6 m/s 745 mmHg 79%
    03:00 -11°C° 0,1 mm 6 m/s 744 mmHg 81%
    04:00 -10°C° 0,1 mm 6 m/s 742 mmHg 83%
    05:00 -10°C° 0,1 mm 6 m/s 741 mmHg 84%
    06:00 -9°C° 0,1 mm 6 m/s 741 mmHg 85%
    07:00 -9°C° 0,1 mm 7 m/s 740 mmHg 86%
    08:00 -8°C° 0,1 mm 7 m/s 739 mmHg 88%
    09:00 -7°C° 0,3 mm 7 m/s 738 mmHg 87%
    10:00 -7°C° 0,3 mm 7 m/s 738 mmHg 87%
    11:00 -6°C° 0,3 mm 8 m/s 737 mmHg 87%
    12:00 -6°C° 0,6 mm 7 m/s 737 mmHg 88%
    13:00 -4°C° 0,6 mm 7 m/s 736 mmHg 89%
    14:00 -4°C° 0,6 mm 7 m/s 735 mmHg 89%
    15:00 -4°C° 0,2 mm 6 m/s 736 mmHg 89%
    16:00 -4°C° 0,2 mm 6 m/s 736 mmHg 88%
    17:00 -5°C° 0,2 mm 6 m/s 736 mmHg 88%
    18:00 -5°C° 0 mm 5 m/s 736 mmHg 89%
    19:00 -4°C° 0 mm 4 m/s 736 mmHg 90%
    20:00 -5°C° 0 mm 4 m/s 736 mmHg 92%
    21:00 -5°C° 0 mm 3 m/s 736 mmHg 93%
    22:00 -5°C° 0 mm 3 m/s 736 mmHg 94%
    23:00 -4°C° 0 mm 2 m/s 736 mmHg 95%

    Demain, 18 Janvier, Jeudi

    Heure Température Précipitation Vent Pression Humidité
    00:00 -4°C° 0 mm 2 m/s 736 mmHg 96%
    01:00 -4°C° 0 mm 2 m/s 736 mmHg 96%
    02:00 -4°C° 0 mm 2 m/s 736 mmHg 96%
    03:00 -4°C° 0,1 mm 2 m/s 735 mmHg 96%
    04:00 -4°C° 0,1 mm 2 m/s 735 mmHg 96%
    05:00 -4°C° 0,1 mm 2 m/s 735 mmHg 96%
    06:00 -5°C° 0,4 mm 3 m/s 735 mmHg 96%
    07:00 -4°C° 0,4 mm 3 m/s 735 mmHg 96%
    08:00 -4°C° 0,4 mm 4 m/s 735 mmHg 95%
    09:00 -4°C° 0,7 mm 4 m/s 735 mmHg 94%
    10:00 -4°C° 0,7 mm 4 m/s 735 mmHg 93%
    11:00 -3°C° 0,7 mm 4 m/s 736 mmHg 93%
    12:00 -3°C° 0,6 mm 4 m/s 736 mmHg 92%
    13:00 -3°C° 0,6 mm 4 m/s 736 mmHg 92%
    14:00 -3°C° 0,6 mm 4 m/s 736 mmHg 92%
    15:00 -3°C° 0,8 mm 4 m/s 737 mmHg 93%
    16:00 -3°C° 0,8 mm 4 m/s 737 mmHg 93%
    17:00 -4°C° 0,8 mm 3 m/s 738 mmHg 94%
    18:00 -4°C° 0,5 mm 3 m/s 738 mmHg 94%
    19:00 -4°C° 0,5 mm 3 m/s 738 mmHg 94%
    20:00 -4°C° 0,5 mm 3 m/s 738 mmHg 95%
    21:00 -4°C° 0,3 mm 3 m/s 739 mmHg 95%
    22:00 -3°C° 0,3 mm 2 m/s 739 mmHg 95%
    23:00 -3°C° 0,3 mm 2 m/s 739 mmHg 95%

    Après-demain, 19 Janvier, Vendredi

    Heure Température Précipitation Vent Pression Humidité
    00:00 -3°C° 0,2 mm 2 m/s 739 mmHg 95%
    01:00 -3°C° 0,2 mm 2 m/s 739 mmHg 95%
    02:00 -4°C° 0,2 mm 2 m/s 738 mmHg 96%
    03:00 -4°C° 0,1 mm 2 m/s 738 mmHg 95%
    04:00 -3°C° 0,1 mm 2 m/s 738 mmHg 95%
    05:00 -3°C° 0,1 mm 2 m/s 737 mmHg 95%
    06:00 -4°C° 0,1 mm 3 m/s 737 mmHg 95%
    07:00 -4°C° 0,1 mm 3 m/s 737 mmHg 95%
    08:00 -4°C° 0,1 mm 4 m/s 737 mmHg 95%
    09:00 -4°C° 0,1 mm 4 m/s 737 mmHg 94%
    10:00 -3°C° 0,1 mm 4 m/s 737 mmHg 93%
    11:00 -4°C° 0,1 mm 5 m/s 737 mmHg 92%
    12:00 -4°C° 0,2 mm 5 m/s 736 mmHg 92%
    13:00 -4°C° 0,2 mm 5 m/s 736 mmHg 92%
    14:00 -4°C° 0,2 mm 5 m/s 736 mmHg 92%
    15:00 -3°C° 0,1 mm 4 m/s 736 mmHg 92%
    16:00 -4°C° 0,1 mm 4 m/s 736 mmHg 93%
    17:00 -4°C° 0,1 mm 4 m/s 736 mmHg 94%
    18:00 -4°C° 0,1 mm 4 m/s 736 mmHg 94%
    19:00 -4°C° 0,1 mm 4 m/s 736 mmHg 94%
    20:00 -4°C° 0,1 mm 4 m/s 736 mmHg 95%
    21:00 -3°C° 0,1 mm 4 m/s 736 mmHg 94%
    22:00 -3°C° 0,1 mm 4 m/s 736 mmHg 94%
    23:00 -2°C° 0,1 mm 3 m/s 736 mmHg 94%

    20 Janvier, Samedi

    Heure Température Précipitation Vent Pression Humidité
    00:00 -3°C° 0,1 mm 4 m/s 736 mmHg 93%
    01:00 -4°C° 0,1 mm 4 m/s 737 mmHg 93%
    02:00 -4°C° 0,1 mm 4 m/s 737 mmHg 93%
    03:00 -5°C° 0,1 mm 5 m/s 737 mmHg 91%
    04:00 -5°C° 0,1 mm 5 m/s 738 mmHg 89%
    05:00 -5°C° 0,1 mm 6 m/s 738 mmHg 88%
    06:00 -5°C° 0 mm 6 m/s 739 mmHg 88%
    07:00 -5°C° 0 mm 6 m/s 739 mmHg 87%
    08:00 -6°C° 0 mm 6 m/s 740 mmHg 87%
    09:00 -5°C° 0 mm 6 m/s 740 mmHg 86%
    10:00 -5°C° 0 mm 6 m/s 741 mmHg 85%
    11:00 -5°C° 0 mm 6 m/s 742 mmHg 84%
    12:00 -5°C° 0 mm 5 m/s 742 mmHg 84%
    13:00 -5°C° 0 mm 5 m/s 743 mmHg 83%
    14:00 -5°C° 0 mm 5 m/s 743 mmHg 83%
    15:00 -4°C° 0 mm 4 m/s 743 mmHg 84%
    16:00 -4°C° 0 mm 4 m/s 744 mmHg 85%
    17:00 -5°C° 0 mm 4 m/s 745 mmHg 87%
    18:00 -5°C° 0 mm 3 m/s 745 mmHg 88%
    19:00 -6°C° 0 mm 3 m/s 745 mmHg 89%
    20:00 -5°C° 0 mm 2 m/s 745 mmHg 90%
    21:00 -6°C° 0 mm 2 m/s 745 mmHg 91%
    22:00 -7°C° 0 mm 2 m/s 746 mmHg 92%
    23:00 -6°C° 0 mm 1 m/s 746 mmHg 93%

    21 Janvier, Dimanche

    Heure Température Précipitation Vent Pression Humidité
    00:00 -6°C° 0 mm 1 m/s 746 mmHg 92%
    01:00 -6°C° 0 mm 1 m/s 746 mmHg 92%
    02:00 -6°C° 0 mm 0 m/s 746 mmHg 92%
    03:00 -7°C° 0 mm 0 m/s 746 mmHg 92%
    04:00 -7°C° 0 mm 0 m/s 746 mmHg 92%
    05:00 -7°C° 0 mm 0 m/s 746 mmHg 92%
    06:00 -7°C° 0 mm 1 m/s 746 mmHg 93%
    07:00 -7°C° 0 mm 1 m/s 746 mmHg 93%
    08:00 -8°C° 0 mm 2 m/s 745 mmHg 93%
    09:00 -7°C° 0 mm 2 m/s 745 mmHg 92%
    10:00 -7°C° 0 mm 2 m/s 746 mmHg 90%
    11:00 -7°C° 0 mm 3 m/s 746 mmHg 89%
    12:00 -7°C° 0 mm 3 m/s 745 mmHg 88%
    13:00 -6°C° 0 mm 3 m/s 745 mmHg 87%
    14:00 -7°C° 0 mm 4 m/s 745 mmHg 86%
    15:00 -7°C° 0 mm 3 m/s 746 mmHg 88%
    16:00 -8°C° 0 mm 3 m/s 746 mmHg 90%
    17:00 -8°C° 0 mm 3 m/s 746 mmHg 92%
    18:00 -9°C° 0 mm 3 m/s 747 mmHg 92%
    19:00 -9°C° 0 mm 3 m/s 747 mmHg 93%
    20:00 -10°C° 0 mm 3 m/s 748 mmHg 94%
    21:00 -10°C° 0 mm 3 m/s 748 mmHg 94%
    22:00 -9°C° 0 mm 2 m/s 748 mmHg 95%
    23:00 -9°C° 0 mm 2 m/s 748 mmHg 95%

    22 Janvier, Lundi

    Heure Température Précipitation Vent Pression Humidité
    00:00 -9°C° 0 mm 2 m/s 749 mmHg 96%
    01:00 -9°C° 0 mm 2 m/s 749 mmHg 96%
    02:00 -9°C° 0 mm 2 m/s 749 mmHg 96%
    03:00 -9°C° 0 mm 2 m/s 750 mmHg 96%
    04:00 -9°C° 0 mm 2 m/s 750 mmHg 96%
    05:00 -10°C° 0 mm 2 m/s 750 mmHg 96%
    06:00 -9°C° 0 mm 2 m/s 750 mmHg 97%
    07:00 -9°C° 0 mm 2 m/s 751 mmHg 97%
    08:00 -9°C° 0 mm 2 m/s 751 mmHg 97%
    09:00 -9°C° 0 mm 2 m/s 752 mmHg 96%
    10:00 -9°C° 0 mm 3 m/s 752 mmHg 95%
    11:00 -8°C° 0 mm 3 m/s 752 mmHg 94%
    12:00 -7°C° 0 mm 3 m/s 752 mmHg 93%
    13:00 -7°C° 0 mm 3 m/s 753 mmHg 92%
    14:00 -7°C° 0 mm 3 m/s 753 mmHg 92%
    15:00 -6°C° 0 mm 2 m/s 753 mmHg 92%
    16:00 -6°C° 0 mm 2 m/s 754 mmHg 92%
    17:00 -7°C° 0 mm 2 m/s 754 mmHg 92%
    18:00 -7°C° 0 mm 2 m/s 754 mmHg 93%
    19:00 -7°C° 0 mm 2 m/s 755 mmHg 93%
    20:00 -7°C° 0 mm 1 m/s 755 mmHg 93%
    21:00 -7°C° 0 mm 1 m/s 755 mmHg 94%
    22:00 -7°C° 0 mm 1 m/s 755 mmHg 94%
    23:00 -8°C° 0 mm 1 m/s 756 mmHg 94%
    Voir plus